星链-4362 (STARLINK-4362 )

导读 | 豆包AI

STARLINK-4362是美国SpaceX公司星链星座的成员,由猎鹰9号火箭于2022年7月11日发射入轨。卫星重约297千克,运行在约548公里高度近地轨道,属于星链星座的组网卫星。它承担太空互联网接入任务,为全球偏远地区、海洋等传统网络覆盖盲区提供高速低时延宽带通信服务,支撑星链低轨星座全球互联的建设目标,目前在轨稳定运行。

基本信息
目录编号:
53043
目录名称:
STARLINK-4362
国际标识:
2022-077A
轨道中心:
EARTH
卫星名称:
星链-4362
卫星全名:
星链-4362 (STARLINK-4362 )
卫星状态:
在轨 (已飞行1343 天)
发射日期:
2022-07-11 UTC
国别 :
美国 (US)
星等 :
--
轨道信息
数据来源 国际轨道数据 AOE轨道数据
星历时间 2026-03-14T20:12:09+0800
14小时前
查看轨道信息
2026-03-10T06:00:00+0800
5天前
查看轨道信息
半长轴 6941.136km 6941.138km
偏心率 0.0002763 0.0002566
轨道倾角 97.602° 97.603°
近地点辐角 59.852° 60.622°
升交点赤经 254.940° 250.446°
平近点角 300.298° 338.638°
近地点 561.081km 561.219km
远地点 564.917km 564.783km
周期 95.919分钟 95.919分钟
每日圈数 15.012637 15.012631
详细信息
固有亮度:
5
最大亮度:
2.5
卫星平台:
Starlink v1.5
覆盖范围:
全球
运营商:
太空探索技术公司
运营商所在国:
美国
制造商(研发单位):
太空探索技术公司
制造商所在国:
美国
使用方式:
暂无
卫星简介
星链(Starlink)计划是由太空探索技术公司(SpaceX)提出的一个巨型低轨卫星互联网星座项目,计划在2019年至2024年间在太空搭建由约1.2万颗卫星组成的“星链”网络,其中1584颗将部署在地球上空550千米处的近地轨道,并从2020年开始工作。该卫星仍在工作。
2D轨道图
3D轨道图
轨道高度分析图
轨道倾角分析图
轨道综合分析图
查看轨道综合分析图